This is the latest recevied weather packets stored in our database for station/object IZ5MMH-1. If no packets are shown the sender has not sent any weather packets the latest 10 day(s).
| Time | Temp. | Humidity | Pressure | Rain* | Wind** | Luminosity | Snow |
|---|---|---|---|---|---|---|---|
| 1787999100 | 35.56° C | 26% | 1016.3 hPa | - | - | - | - |
| 1787998500 | 35° C | 28% | 1016.4 hPa | - | - | - | - |
| 1787997900 | 35° C | 28% | 1016.5 hPa | - | - | - | - |
| 1787997300 | 34.44° C | 29% | 1016.6 hPa | - | - | - | - |
| 1787996700 | 35° C | 29% | 1016.7 hPa | - | - | - | - |
| 1787996100 | 34.44° C | 31% | 1016.8 hPa | - | - | - | - |
| 1787995500 | 34.44° C | 30% | 1016.8 hPa | - | - | - | - |
| 1787994899 | 33.89° C | 33% | 1016.8 hPa | - | - | - | - |
| 1787994299 | 33.33° C | 34% | 1016.7 hPa | - | - | - | - |
| 1787993699 | 32.78° C | 33% | 1016.6 hPa | - | - | - | - |
| 1787993100 | 32.78° C | 31% | 1016.5 hPa | - | - | - | - |
| 1787992500 | 32.78° C | 36% | 1016.4 hPa | - | - | - | - |
| 1787991899 | 31.67° C | 37% | 1016.5 hPa | - | - | - | - |
| 1787991299 | 31.11° C | 41% | 1016.5 hPa | - | - | - | - |
| 1787990699 | 30.56° C | 43% | 1016.5 hPa | - | - | - | - |
| 1787990100 | 30° C | 45% | 1016.7 hPa | - | - | - | - |
| 1787989501 | 29.44° C | 47% | 1016.7 hPa | - | - | - | - |
| 1787988899 | 29.44° C | 45% | 1016.6 hPa | - | - | - | - |
| 1787988300 | 29.44° C | 45% | 1016.4 hPa | - | - | - | - |
| 1787987701 | 28.89° C | 47% | 1016.5 hPa | - | - | - | - |
| 1787987099 | 29.44° C | 48% | 1016.5 hPa | - | - | - | - |
| 1787986500 | 29.44° C | 48% | 1016.5 hPa | - | - | - | - |
| 1787985899 | 29.44° C | 50% | 1016.6 hPa | - | - | - | - |
| 1787985300 | 29.44° C | 50% | 1016.5 hPa | - | - | - | - |
| 1787984700 | 28.89° C | 53% | 1016.4 hPa | - | - | - | - |
* Rain since midnight (hover to see other rain measurements)
** Current wind speed in m/s (hover to see current wind gust speed)